EN

Hourly Weather Lapkovo

Today, 24 October, Saturday

Time Temperature Precipitation Wind Pressure Humidity
00:00 +7°C° 0 mm 4 mps 734 mmHg 90%
01:00 +7°C° 0 mm 4 mps 735 mmHg 91%
02:00 +8°C° 0 mm 3 mps 735 mmHg 92%
03:00 +7°C° 0 mm 3 mps 735 mmHg 93%
04:00 +7°C° 0 mm 3 mps 735 mmHg 94%
05:00 +7°C° 0 mm 2 mps 735 mmHg 95%
06:00 +7°C° 0 mm 2 mps 735 mmHg 94%
07:00 +7°C° 0 mm 2 mps 736 mmHg 94%
08:00 +7°C° 0 mm 2 mps 736 mmHg 93%
09:00 +8°C° 0 mm 3 mps 736 mmHg 88%
10:00 +9°C° 0 mm 3 mps 736 mmHg 84%
11:00 +10°C° 0 mm 3 mps 737 mmHg 79%
12:00 +10°C° 0.2 mm 3 mps 737 mmHg 80%
13:00 +9°C° 0.2 mm 3 mps 737 mmHg 82%
14:00 +9°C° 0.2 mm 3 mps 737 mmHg 83%
15:00 +9°C° 0.2 mm 2 mps 736 mmHg 86%
16:00 +9°C° 0.2 mm 2 mps 736 mmHg 90%
17:00 +8°C° 0.2 mm 2 mps 736 mmHg 93%
18:00 +8°C° 0.3 mm 2 mps 736 mmHg 93%
19:00 +8°C° 0.3 mm 2 mps 736 mmHg 93%
20:00 +8°C° 0.3 mm 2 mps 736 mmHg 93%
21:00 +8°C° 0 mm 2 mps 736 mmHg 94%
22:00 +7°C° 0 mm 2 mps 736 mmHg 95%
23:00 +7°C° 0 mm 2 mps 736 mmHg 96%

Tomorrow, 25 October, Sunday

Time Temperature Precipitation Wind Pressure Humidity
00:00 +7°C° 0 mm 2 mps 737 mmHg 96%
01:00 +7°C° 0 mm 2 mps 737 mmHg 95%
02:00 +7°C° 0 mm 2 mps 737 mmHg 95%
03:00 +7°C° 0.2 mm 2 mps 737 mmHg 95%
04:00 +7°C° 0.2 mm 2 mps 737 mmHg 95%
05:00 +7°C° 0.2 mm 2 mps 737 mmHg 95%
06:00 +7°C° 0.1 mm 2 mps 738 mmHg 94%
07:00 +7°C° 0.1 mm 2 mps 738 mmHg 93%
08:00 +8°C° 0.1 mm 2 mps 739 mmHg 92%
09:00 +8°C° 0 mm 3 mps 739 mmHg 87%
10:00 +9°C° 0 mm 3 mps 740 mmHg 83%
11:00 +10°C° 0 mm 3 mps 740 mmHg 78%
12:00 +10°C° 0.1 mm 3 mps 740 mmHg 78%
13:00 +10°C° 0.1 mm 3 mps 741 mmHg 78%
14:00 +10°C° 0.1 mm 3 mps 741 mmHg 78%
15:00 +9°C° 0 mm 3 mps 741 mmHg 80%
16:00 +9°C° 0 mm 2 mps 741 mmHg 83%
17:00 +8°C° 0 mm 2 mps 742 mmHg 86%
18:00 +8°C° 0 mm 1 mps 742 mmHg 88%
19:00 +8°C° 0 mm 1 mps 743 mmHg 90%
20:00 +7°C° 0 mm 1 mps 743 mmHg 92%
21:00 +7°C° 0 mm 1 mps 743 mmHg 92%
22:00 +7°C° 0 mm 1 mps 743 mmHg 93%
23:00 +6°C° 0 mm 1 mps 744 mmHg 93%

Day after tomorrow, 26 October, Monday

Time Temperature Precipitation Wind Pressure Humidity
00:00 +7°C° 0 mm 1 mps 744 mmHg 93%
01:00 +7°C° 0 mm 1 mps 744 mmHg 93%
02:00 +7°C° 0 mm 1 mps 745 mmHg 93%
03:00 +7°C° 0 mm 1 mps 745 mmHg 93%
04:00 +7°C° 0 mm 1 mps 745 mmHg 94%
05:00 +7°C° 0 mm 1 mps 745 mmHg 94%
06:00 +7°C° 0 mm 1 mps 745 mmHg 94%
07:00 +7°C° 0 mm 1 mps 745 mmHg 94%
08:00 +8°C° 0 mm 1 mps 746 mmHg 94%
09:00 +9°C° 0 mm 1 mps 746 mmHg 91%
10:00 +8°C° 0 mm 2 mps 746 mmHg 88%
11:00 +9°C° 0 mm 2 mps 746 mmHg 85%
12:00 +10°C° 0 mm 2 mps 746 mmHg 84%
13:00 +10°C° 0 mm 2 mps 746 mmHg 84%
14:00 +10°C° 0 mm 2 mps 746 mmHg 83%
15:00 +9°C° 0 mm 2 mps 746 mmHg 86%
16:00 +9°C° 0 mm 2 mps 746 mmHg 88%
17:00 +8°C° 0 mm 2 mps 746 mmHg 90%
18:00 +8°C° 0 mm 2 mps 746 mmHg 90%
19:00 +7°C° 0 mm 2 mps 746 mmHg 90%
20:00 +7°C° 0 mm 2 mps 746 mmHg 90%
21:00 +7°C° 0 mm 2 mps 746 mmHg 89%
22:00 +7°C° 0 mm 3 mps 746 mmHg 89%
23:00 +7°C° 0 mm 3 mps 746 mmHg 89%

, 27 October, Tuesday

Time Temperature Precipitation Wind Pressure Humidity
00:00 +7°C° 0 mm 3 mps 746 mmHg 90%
01:00 +7°C° 0 mm 3 mps 746 mmHg 91%
02:00 +5°C° 0 mm 3 mps 746 mmHg 91%
03:00 +5°C° 0 mm 3 mps 746 mmHg 92%
04:00 +5°C° 0 mm 3 mps 746 mmHg 94%
05:00 +5°C° 0 mm 3 mps 746 mmHg 95%
06:00 +5°C° 0 mm 3 mps 746 mmHg 94%
07:00 +5°C° 0 mm 3 mps 746 mmHg 93%
08:00 +5°C° 0 mm 4 mps 746 mmHg 93%
09:00 +7°C° 0 mm 4 mps 746 mmHg 88%
10:00 +8°C° 0 mm 4 mps 746 mmHg 83%
11:00 +10°C° 0 mm 4 mps 746 mmHg 78%
12:00 +11°C° 0 mm 4 mps 746 mmHg 77%
13:00 +11°C° 0 mm 4 mps 746 mmHg 75%
14:00 +12°C° 0 mm 4 mps 746 mmHg 73%
15:00 +11°C° 0 mm 4 mps 746 mmHg 77%
16:00 +10°C° 0 mm 4 mps 746 mmHg 81%
17:00 +8°C° 0 mm 4 mps 746 mmHg 85%
18:00 +8°C° 0 mm 4 mps 746 mmHg 86%
19:00 +7°C° 0 mm 4 mps 746 mmHg 87%
20:00 +7°C° 0 mm 4 mps 746 mmHg 87%
21:00 +7°C° 0 mm 4 mps 746 mmHg 87%
22:00 +7°C° 0 mm 4 mps 746 mmHg 87%
23:00 +6°C° 0 mm 4 mps 746 mmHg 87%

27 October, Tuesday

Time Temperature Precipitation Wind Pressure Humidity
00:00 +7°C° 0 mm 3 mps 746 mmHg 90%
01:00 +7°C° 0 mm 3 mps 746 mmHg 91%
02:00 +5°C° 0 mm 3 mps 746 mmHg 91%
03:00 +5°C° 0 mm 3 mps 746 mmHg 92%
04:00 +5°C° 0 mm 3 mps 746 mmHg 94%
05:00 +5°C° 0 mm 3 mps 746 mmHg 95%
06:00 +5°C° 0 mm 3 mps 746 mmHg 94%
07:00 +5°C° 0 mm 3 mps 746 mmHg 93%
08:00 +5°C° 0 mm 4 mps 746 mmHg 93%
09:00 +7°C° 0 mm 4 mps 746 mmHg 88%
10:00 +8°C° 0 mm 4 mps 746 mmHg 83%
11:00 +10°C° 0 mm 4 mps 746 mmHg 78%
12:00 +11°C° 0 mm 4 mps 746 mmHg 77%
13:00 +11°C° 0 mm 4 mps 746 mmHg 75%
14:00 +12°C° 0 mm 4 mps 746 mmHg 73%
15:00 +11°C° 0 mm 4 mps 746 mmHg 77%
16:00 +10°C° 0 mm 4 mps 746 mmHg 81%
17:00 +8°C° 0 mm 4 mps 746 mmHg 85%
18:00 +8°C° 0 mm 4 mps 746 mmHg 86%
19:00 +7°C° 0 mm 4 mps 746 mmHg 87%
20:00 +7°C° 0 mm 4 mps 746 mmHg 87%
21:00 +7°C° 0 mm 4 mps 746 mmHg 87%
22:00 +7°C° 0 mm 4 mps 746 mmHg 87%
23:00 +6°C° 0 mm 4 mps 746 mmHg 87%

28 October, Wednesday

Time Temperature Precipitation Wind Pressure Humidity
00:00 +6°C° 0 mm 4 mps 746 mmHg 87%
01:00 +6°C° 0 mm 4 mps 746 mmHg 87%
02:00 +7°C° 0 mm 3 mps 746 mmHg 87%
03:00 +5°C° 0 mm 3 mps 746 mmHg 87%
04:00 +5°C° 0 mm 3 mps 746 mmHg 88%
05:00 +5°C° 0 mm 3 mps 745 mmHg 88%
06:00 +5°C° 0 mm 4 mps 746 mmHg 87%
07:00 +5°C° 0 mm 4 mps 746 mmHg 87%
08:00 +5°C° 0 mm 4 mps 746 mmHg 86%
09:00 +6°C° 0 mm 4 mps 746 mmHg 82%
10:00 +7°C° 0 mm 4 mps 746 mmHg 78%
11:00 +8°C° 0 mm 4 mps 746 mmHg 75%
12:00 +10°C° 0 mm 4 mps 746 mmHg 74%
13:00 +10°C° 0 mm 4 mps 746 mmHg 73%
14:00 +11°C° 0 mm 4 mps 746 mmHg 73%
15:00 +10°C° 0 mm 4 mps 746 mmHg 76%
16:00 +8°C° 0 mm 4 mps 746 mmHg 79%
17:00 +8°C° 0 mm 3 mps 746 mmHg 82%
18:00 +8°C° 0 mm 3 mps 746 mmHg 83%
19:00 +8°C° 0 mm 3 mps 746 mmHg 83%
20:00 +7°C° 0 mm 3 mps 746 mmHg 83%
21:00 +7°C° 0 mm 3 mps 746 mmHg 84%
22:00 +7°C° 0 mm 3 mps 746 mmHg 84%
23:00 +5°C° 0 mm 3 mps 746 mmHg 84%

29 October, Thursday

Time Temperature Precipitation Wind Pressure Humidity
00:00 +5°C° 0 mm 3 mps 746 mmHg 85%
01:00 +5°C° 0 mm 3 mps 746 mmHg 86%
02:00 +4°C° 0 mm 3 mps 746 mmHg 86%
03:00 +4°C° 0 mm 3 mps 746 mmHg 87%
04:00 +4°C° 0 mm 3 mps 746 mmHg 88%
05:00 +3°C° 0 mm 3 mps 746 mmHg 88%
06:00 +3°C° 0 mm 3 mps 746 mmHg 87%
07:00 +3°C° 0 mm 3 mps 746 mmHg 85%
08:00 +3°C° 0 mm 3 mps 746 mmHg 84%
09:00 +4°C° 0 mm 3 mps 746 mmHg 79%
10:00 +5°C° 0 mm 3 mps 746 mmHg 73%
11:00 +7°C° 0 mm 3 mps 746 mmHg 67%
12:00 +8°C° 0 mm 3 mps 746 mmHg 65%
13:00 +8°C° 0 mm 3 mps 745 mmHg 63%
14:00 +8°C° 0 mm 3 mps 745 mmHg 61%
15:00 +7°C° 0 mm 3 mps 745 mmHg 65%
16:00 +5°C° 0 mm 3 mps 745 mmHg 69%
17:00 +4°C° 0 mm 3 mps 745 mmHg 73%
18:00 +4°C° 0 mm 3 mps 745 mmHg 74%
19:00 +4°C° 0 mm 3 mps 745 mmHg 75%
20:00 +4°C° 0 mm 3 mps 745 mmHg 75%
21:00 +3°C° 0 mm 3 mps 745 mmHg 77%
22:00 +4°C° 0 mm 2 mps 744 mmHg 78%
23:00 +4°C° 0 mm 2 mps 744 mmHg 79%
Show more

We Need Your Consent

Meteoprog and our Service Providers may store and access personal data such as cookies, device identifiers or other similar technologies on your device and process such data to personalise content and ads, as well as provide social media features and to analyse the traffic.

  • Store and/or access information on your device

    Cookies, device identifiers or other information can be stored or accessed on your device for the purposes indicated above.

  • Personalised ads and content, ad and content measurement, audience insights, and products development

    Ads and content can be personalised based on a profile. More data can be added to better personalise ads and content. Ad and content performance can be measured. Insights about the audience who saw the ads and content can be derived. Such data can be used to develop or improve user’s experience, systems and software.

By clicking ‘I Agree’ you will allow the use of indicated cookies, device identifiers, web beacons or other similar technologies. Your settings can be changed in the browser on your device.

For certain purposes, legitimate interests may be relied on, rather than consent. You can read more about this in our Privacy and Cookie Policy.